| time (UTC) | temp F | wind direction | speed MPH | gust MPH | rain 1hr in | rain 24hr in | rain mn in | humidity % | barometer mb |
| 20260504214320 | 75 | 198 | 1.0 | 1.0 | 0.00 | 0.00 | 0.00 | 27 | 1095.9 |
| 20260504213816 | 74 | 312 | 3.0 | 6.0 | 0.00 | 0.00 | 0.00 | 26 | 1096.1 |
| 20260504213312 | 73 | 277 | 3.0 | 8.0 | 0.00 | 0.00 | 0.00 | 26 | 1096.1 |
| 20260504212810 | 75 | 330 | 3.0 | 8.0 | 0.00 | 0.00 | 0.00 | 27 | 1096.3 |
| 20260504212306 | 75 | 313 | 4.0 | 10.0 | 0.00 | 0.00 | 0.00 | 26 | 1096.1 |
| 20260504211804 | 76 | 29 | 3.0 | 6.0 | 0.00 | 0.00 | 0.00 | 25 | 1096.3 |
| 20260504211259 | 76 | 257 | 3.0 | 6.0 | 0.00 | 0.00 | 0.00 | 26 | 1096.3 |
| 20260504210757 | 75 | 14 | 1.0 | 5.0 | 0.00 | 0.00 | 0.00 | 27 | 1096.2 |
| 20260504210254 | 75 | 279 | 2.0 | 3.0 | 0.00 | 0.00 | 0.00 | 26 | 1096.2 |
| 20260504205751 | 74 | 329 | 3.0 | 6.0 | 0.00 | 0.00 | 0.00 | 26 | 1096.6 |
| 20260504205249 | 75 | 237 | 3.0 | 6.0 | 0.00 | 0.00 | 0.00 | 26 | 1096.6 |
| 20260504204747 | 75 | 287 | 2.0 | 6.0 | 0.00 | 0.00 | 0.00 | 26 | 1096.5 |
| 20260504204245 | 74 | 226 | 2.0 | 5.0 | 0.00 | 0.00 | 0.00 | 29 | 1096.7 |
| 20260504203744 | 74 | 220 | 2.0 | 3.0 | 0.00 | 0.00 | 0.00 | 28 | 1096.8 |
| 20260504203241 | 73 | 5 | 1.0 | 3.0 | 0.00 | 0.00 | 0.00 | 25 | 1096.9 |
| 20260504202741 | 74 | 351 | 2.0 | 3.0 | 0.00 | 0.00 | 0.00 | 26 | 1097.0 |
| 20260504202238 | 74 | 239 | 2.0 | 3.0 | 0.00 | 0.00 | 0.00 | 28 | 1096.9 |
| 20260504201735 | 72 | 0 | 1.0 | 3.0 | 0.00 | 0.00 | 0.00 | 28 | 1097.3 |
| 20260504201232 | 73 | 250 | 2.0 | 3.0 | 0.00 | 0.00 | 0.00 | 27 | 1096.6 |
| 20260504200730 | 74 | 294 | 1.0 | 5.0 | 0.00 | 0.00 | 0.00 | 29 | 1097.0 |
| 20260504200226 | 73 | 312 | 4.0 | 6.0 | 0.00 | 0.00 | 0.00 | 29 | 1097.4 |
| 20260504195722 | 73 | 315 | 3.0 | 6.0 | 0.00 | 0.00 | 0.00 | 30 | 1097.3 |
| 20260504195218 | 74 | 254 | 1.0 | 2.0 | 0.00 | 0.00 | 0.00 | 29 | 1097.4 |
| 20260504194716 | 73 | 134 | 2.0 | 5.0 | 0.00 | 0.00 | 0.00 | 30 | 1097.4 |
| 20260504194212 | 73 | 200 | 1.0 | 5.0 | 0.00 | 0.00 | 0.00 | 31 | 1097.6 |
| 20260504193708 | 73 | 301 | 0.0 | 5.0 | 0.00 | 0.00 | 0.00 | 31 | 1097.6 |
| 20260504193206 | 72 | 226 | 2.0 | 6.0 | 0.00 | 0.00 | 0.00 | 29 | 1097.4 |
| 20260504192704 | 72 | 231 | 1.0 | 6.0 | 0.00 | 0.00 | 0.00 | 31 | 1097.7 |
| 20260504192201 | 72 | 186 | 1.0 | 2.0 | 0.00 | 0.00 | 0.00 | 34 | 1097.7 |
| 20260504191700 | 72 | 236 | 1.0 | 2.0 | 0.00 | 0.00 | 0.00 | 32 | 1097.8 |
| 20260504191156 | 72 | 240 | 2.0 | 5.0 | 0.00 | 0.00 | 0.00 | 31 | 1098.0 |
| 20260504190652 | 71 | 233 | 1.0 | 6.0 | 0.00 | 0.00 | 0.00 | 32 | 1098.1 |
| 20260504190148 | 72 | 222 | 1.0 | 3.0 | 0.00 | 0.00 | 0.00 | 32 | 1098.2 |
| 20260504185645 | 71 | 264 | 4.0 | 7.0 | 0.00 | 0.00 | 0.00 | 33 | 1098.2 |
| 20260504185142 | 71 | 225 | 4.0 | 7.0 | 0.00 | 0.00 | 0.00 | 31 | 1098.1 |
| 20260504184638 | 71 | 207 | 1.0 | 5.0 | 0.00 | 0.00 | 0.00 | 35 | 1098.2 |
| 20260504184133 | 71 | 212 | 1.0 | 2.0 | 0.00 | 0.00 | 0.00 | 31 | 1098.3 |
| 20260504183630 | 71 | 27 | 5.0 | 7.0 | 0.00 | 0.00 | 0.00 | 32 | 1098.5 |
| 20260504183128 | 71 | 150 | 3.0 | 3.0 | 0.00 | 0.00 | 0.00 | 34 | 1098.6 |
| 20260504182625 | 71 | 171 | 0.0 | 1.0 | 0.00 | 0.00 | 0.00 | 36 | 1098.5 |
| 20260504182123 | 71 | 197 | 3.0 | 3.0 | 0.00 | 0.00 | 0.00 | 33 | 1098.2 |
| 20260504181620 | 70 | 182 | 1.0 | 5.0 | 0.00 | 0.00 | 0.00 | 32 | 1098.5 |
| 20260504181117 | 70 | 317 | 1.0 | 3.0 | 0.00 | 0.00 | 0.00 | 31 | 1098.4 |
| 20260504180616 | 69 | 294 | 2.0 | 5.0 | 0.00 | 0.00 | 0.00 | 33 | 1098.8 |
| 20260504180115 | 70 | 323 | 5.0 | 7.0 | 0.00 | 0.00 | 0.00 | 34 | 1098.3 |
| 20260504175612 | 69 | 359 | 2.0 | 5.0 | 0.00 | 0.00 | 0.00 | 35 | 1098.6 |
| 20260504175108 | 69 | 11 | 4.0 | 6.0 | 0.00 | 0.00 | 0.00 | 35 | 1098.6 |
| 20260504174607 | 69 | 231 | 1.0 | 3.0 | 0.00 | 0.00 | 0.00 | 39 | 1099.0 |
| 20260504174102 | 69 | 167 | 1.0 | 2.0 | 0.00 | 0.00 | 0.00 | 36 | 1098.8 |
| 20260504173559 | 68 | 188 | 2.0 | 2.0 | 0.00 | 0.00 | 0.00 | 37 | 1098.9 |
| 20260504173057 | 69 | 230 | 1.0 | 2.0 | 0.00 | 0.00 | 0.00 | 35 | 1099.0 |
| 20260504172553 | 68 | 177 | 1.0 | 3.0 | 0.00 | 0.00 | 0.00 | 36 | 1098.8 |
| 20260504172050 | 68 | 216 | 0.0 | 3.0 | 0.00 | 0.00 | 0.00 | 36 | 1098.9 |
| 20260504171547 | 67 | 153 | 1.0 | 3.0 | 0.00 | 0.00 | 0.00 | 39 | 1099.0 |
| 20260504171044 | 68 | 208 | 0.0 | 3.0 | 0.00 | 0.00 | 0.00 | 38 | 1098.8 |
| 20260504170539 | 68 | 208 | 0.0 | 2.0 | 0.00 | 0.00 | 0.00 | 33 | 1098.8 |
| 20260504150923 | 60 | 225 | 0.0 | 1.0 | 0.00 | 0.00 | 0.00 | 44 | 1099.1 |
| 20260504150420 | 59 | 308 | 1.0 | 1.0 | 0.00 | 0.00 | 0.00 | 45 | 1099.1 |
| 20260504140847 | 46 | 231 | 0.0 | 1.0 | 0.00 | 0.00 | 0.00 | 66 | 1099.2 |
| 20260504140343 | 46 | 232 | 1.0 | 1.0 | 0.00 | 0.00 | 0.00 | 68 | 1099.4 |
| 20260504130811 | 39 | 253 | 0.0 | 0.0 | 0.00 | 0.00 | 0.00 | 83 | 1098.9 |
| 20260504130307 | 39 | 253 | 0.0 | 0.0 | 0.00 | 0.00 | 0.00 | 86 | 1099.1 |
| 20260504120231 | 40 | 261 | 0.0 | 0.0 | 0.00 | 0.00 | 0.00 | 87 | 1099.0 |
| 20260504110658 | 41 | 271 | 0.0 | 0.0 | 0.00 | 0.00 | 0.00 | 79 | 1099.2 |
| 20260504110155 | 40 | 271 | 0.0 | 0.0 | 0.00 | 0.00 | 0.00 | 78 | 1098.9 |
| 20260504100119 | 42 | 284 | 0.0 | 1.0 | 0.00 | 0.00 | 0.00 | 73 | 1098.6 |
| 20260504081512 | 49 | 316 | 0.0 | 1.0 | 0.00 | 0.00 | 0.00 | 55 | 1098.9 |
| 20260504081007 | 50 | 336 | 1.0 | 2.0 | 0.00 | 0.00 | 0.00 | 54 | 1098.8 |
| 20260504080504 | 50 | 331 | 1.0 | 2.0 | 0.00 | 0.00 | 0.00 | 54 | 1098.8 |
| 20260504050317 | 54 | 208 | 0.0 | 0.0 | 0.00 | 0.00 | 0.00 | 49 | 1099.2 |
| 20260504045814 | 54 | 218 | 0.0 | 1.0 | 0.00 | 0.00 | 0.00 | 49 | 1099.4 |
| 20260504045309 | 55 | 230 | 1.0 | 1.0 | 0.00 | 0.00 | 0.00 | 47 | 1099.4 |
| 20260504044806 | 55 | 208 | 0.0 | 1.0 | 0.00 | 0.00 | 0.00 | 47 | 1099.4 |
| 20260504044304 | 55 | 189 | 0.0 | 1.0 | 0.00 | 0.00 | 0.00 | 46 | 1099.2 |
| 20260504043801 | 56 | 188 | 0.0 | 0.0 | 0.00 | 0.00 | 0.00 | 44 | 1099.3 |
| 20260504043258 | 57 | 188 | 0.0 | 1.0 | 0.00 | 0.00 | 0.00 | 42 | 1099.3 |
| 20260504042755 | 57 | 188 | 0.0 | 0.0 | 0.00 | 0.00 | 0.00 | 42 | 1099.3 |
| 20260504042251 | 57 | 188 | 0.0 | 1.0 | 0.00 | 0.00 | 0.00 | 42 | 1099.2 |
| 20260504041747 | 57 | 189 | 0.0 | 1.0 | 0.00 | 0.00 | 0.00 | 42 | 1099.1 |
| 20260504041243 | 57 | 188 | 0.0 | 1.0 | 0.00 | 0.00 | 0.00 | 42 | 1099.1 |
| 20260504040739 | 56 | 190 | 0.0 | 1.0 | 0.00 | 0.00 | 0.00 | 43 | 1099.3 |
| 20260504040238 | 56 | 190 | 0.0 | 1.0 | 0.00 | 0.00 | 0.00 | 44 | 1099.2 |
| 20260504035733 | 56 | 190 | 0.0 | 0.0 | 0.00 | 0.00 | 0.00 | 45 | 1099.4 |
| 20260504035231 | 55 | 190 | 0.0 | 0.0 | 0.00 | 0.00 | 0.00 | 45 | 1099.3 |
| 20260504034729 | 56 | 190 | 0.0 | 0.0 | 0.00 | 0.00 | 0.00 | 46 | 1099.2 |
| 20260504034226 | 57 | 189 | 0.0 | 0.0 | 0.00 | 0.00 | 0.00 | 43 | 1099.2 |
| 20260504033723 | 57 | 189 | 0.0 | 0.0 | 0.00 | 0.00 | 0.00 | 43 | 1099.2 |
| 20260504033221 | 58 | 190 | 0.0 | 1.0 | 0.00 | 0.00 | 0.00 | 42 | 1099.2 |
| 20260504032717 | 59 | 190 | 0.0 | 1.0 | 0.00 | 0.00 | 0.00 | 41 | 1099.1 |
| 20260504032214 | 59 | 189 | 1.0 | 1.0 | 0.00 | 0.00 | 0.00 | 41 | 1099.1 |
| 20260504031710 | 59 | 189 | 1.0 | 1.0 | 0.00 | 0.00 | 0.00 | 41 | 1099.1 |
| 20260504031208 | 60 | 190 | 0.0 | 1.0 | 0.00 | 0.00 | 0.00 | 41 | 1099.1 |
| 20260504030703 | 60 | 190 | 0.0 | 1.0 | 0.00 | 0.00 | 0.00 | 40 | 1099.0 |
| 20260504030201 | 61 | 190 | 0.0 | 1.0 | 0.00 | 0.00 | 0.00 | 39 | 1099.2 |
| 20260504025658 | 62 | 191 | 0.0 | 1.0 | 0.00 | 0.00 | 0.00 | 37 | 1099.0 |
| 20260504025154 | 61 | 192 | 1.0 | 1.0 | 0.00 | 0.00 | 0.00 | 37 | 1099.1 |
| 20260504024651 | 60 | 197 | 0.0 | 0.0 | 0.00 | 0.00 | 0.00 | 38 | 1099.0 |
| 20260504024148 | 61 | 197 | 0.0 | 0.0 | 0.00 | 0.00 | 0.00 | 38 | 1098.8 |
| 20260504023645 | 62 | 197 | 0.0 | 0.0 | 0.00 | 0.00 | 0.00 | 40 | 1099.0 |
| 20260504023141 | 63 | 197 | 0.0 | 0.0 | 0.00 | 0.00 | 0.00 | 36 | 1099.0 |
| 20260504022637 | 64 | 197 | 0.0 | 0.0 | 0.00 | 0.00 | 0.00 | 35 | 1099.0 |
| 20260504022133 | 64 | 197 | 0.0 | 0.0 | 0.00 | 0.00 | 0.00 | 35 | 1098.9 |
| 20260504021631 | 65 | 197 | 0.0 | 0.0 | 0.00 | 0.00 | 0.00 | 34 | 1098.6 |
| 20260504021127 | 66 | 198 | 0.0 | 0.0 | 0.00 | 0.00 | 0.00 | 32 | 1098.9 |
| 20260504020625 | 66 | 198 | 0.0 | 0.0 | 0.00 | 0.00 | 0.00 | 32 | 1098.8 |
| 20260504020120 | 67 | 199 | 0.0 | 0.0 | 0.00 | 0.00 | 0.00 | 29 | 1098.9 |
| 20260504015617 | 68 | 199 | 0.0 | 1.0 | 0.00 | 0.00 | 0.00 | 28 | 1099.0 |
| 20260504015114 | 69 | 196 | 0.0 | 0.0 | 0.00 | 0.00 | 0.00 | 27 | 1099.1 |
| 20260504014609 | 70 | 194 | 0.0 | 1.0 | 0.00 | 0.00 | 0.00 | 25 | 1099.1 |
| 20260504014107 | 70 | 202 | 0.0 | 0.0 | 0.00 | 0.00 | 0.00 | 25 | 1099.2 |
| 20260504013604 | 71 | 208 | 1.0 | 2.0 | 0.00 | 0.00 | 0.00 | 24 | 1099.2 |
| 20260504013101 | 71 | 216 | 1.0 | 3.0 | 0.00 | 0.00 | 0.00 | 24 | 1099.0 |
| 20260504012558 | 71 | 245 | 1.0 | 2.0 | 0.00 | 0.00 | 0.00 | 23 | 1099.0 |
| 20260504012056 | 71 | 171 | 0.0 | 2.0 | 0.00 | 0.00 | 0.00 | 23 | 1099.1 |
| 20260504011553 | 72 | 211 | 1.0 | 2.0 | 0.00 | 0.00 | 0.00 | 23 | 1099.3 |
| 20260504011049 | 72 | 182 | 0.0 | 1.0 | 0.00 | 0.00 | 0.00 | 23 | 1099.2 |
| 20260504010544 | 72 | 162 | 0.0 | 2.0 | 0.00 | 0.00 | 0.00 | 23 | 1099.4 |
| 20260504010041 | 72 | 204 | 2.0 | 2.0 | 0.00 | 0.00 | 0.00 | 24 | 1099.4 |
| 20260504005538 | 73 | 250 | 3.0 | 3.0 | 0.00 | 0.00 | 0.00 | 22 | 1099.3 |
| 20260504005035 | 75 | 226 | 1.0 | 2.0 | 0.00 | 0.00 | 0.00 | 22 | 1099.7 |
| 20260504004533 | 75 | 202 | 0.0 | 1.0 | 0.00 | 0.00 | 0.00 | 22 | 1099.6 |
| 20260504004030 | 74 | 216 | 0.0 | 2.0 | 0.00 | 0.00 | 0.00 | 21 | 1099.4 |
| 20260504003526 | 75 | 233 | 1.0 | 2.0 | 0.00 | 0.00 | 0.00 | 22 | 1099.6 |
| 20260504003023 | 75 | 201 | 1.0 | 3.0 | 0.00 | 0.00 | 0.00 | 21 | 1099.4 |
| 20260504002520 | 74 | 275 | 2.0 | 5.0 | 0.00 | 0.00 | 0.00 | 21 | 1099.6 |
| 20260504002017 | 73 | 159 | 1.0 | 3.0 | 0.00 | 0.00 | 0.00 | 23 | 1099.6 |
| 20260504001515 | 74 | 194 | 1.0 | 3.0 | 0.00 | 0.00 | 0.00 | 21 | 1099.9 |
| 20260504001011 | 74 | 214 | 1.0 | 2.0 | 0.00 | 0.00 | 0.00 | 20 | 1099.8 |
| 20260504000508 | 75 | 213 | 0.0 | 2.0 | 0.00 | 0.00 | 0.00 | 20 | 1099.8 |
| 20260504000005 | 76 | 279 | 0.0 | 1.0 | 0.00 | 0.00 | 0.00 | 19 | 1099.9 |
| 20260503235503 | 76 | 263 | 1.0 | 3.0 | 0.00 | 0.00 | 0.00 | 19 | 1100.0 |
| 20260503235000 | 77 | 293 | 1.0 | 2.0 | 0.00 | 0.00 | 0.00 | 19 | 1100.1 |
| 20260503234458 | 77 | 283 | 1.0 | 2.0 | 0.00 | 0.00 | 0.00 | 20 | 1100.0 |
| 20260503233956 | 77 | 278 | 2.0 | 3.0 | 0.00 | 0.00 | 0.00 | 19 | 1100.3 |
| 20260503233452 | 76 | 263 | 1.0 | 2.0 | 0.00 | 0.00 | 0.00 | 21 | 1100.1 |
| 20260503232948 | 76 | 159 | 2.0 | 3.0 | 0.00 | 0.00 | 0.00 | 20 | 1100.1 |
| 20260503232445 | 76 | 197 | 1.0 | 1.0 | 0.00 | 0.00 | 0.00 | 20 | 1100.3 |
| 20260503231943 | 75 | 277 | 1.0 | 1.0 | 0.00 | 0.00 | 0.00 | 19 | 1100.0 |
| 20260503231440 | 75 | 194 | 1.0 | 2.0 | 0.00 | 0.00 | 0.00 | 20 | 1100.5 |
| 20260503230937 | 77 | 208 | 1.0 | 3.0 | 0.00 | 0.00 | 0.00 | 21 | 1100.6 |
| 20260503230433 | 78 | 235 | 1.0 | 2.0 | 0.00 | 0.00 | 0.00 | 20 | 1100.3 |
| 20260503225931 | 77 | 289 | 1.0 | 3.0 | 0.00 | 0.00 | 0.00 | 21 | 1100.7 |
| 20260503225428 | 77 | 254 | 1.0 | 6.0 | 0.00 | 0.00 | 0.00 | 19 | 1100.9 |
| 20260503224923 | 76 | 222 | 1.0 | 3.0 | 0.00 | 0.00 | 0.00 | 19 | 1100.7 |
| 20260503224420 | 76 | 163 | 3.0 | 7.0 | 0.00 | 0.00 | 0.00 | 20 | 1100.6 |
| 20260503223918 | 76 | 228 | 3.0 | 3.0 | 0.00 | 0.00 | 0.00 | 21 | 1100.8 |
| 20260503223416 | 76 | 214 | 0.0 | 2.0 | 0.00 | 0.00 | 0.00 | 22 | 1100.9 |
| 20260503222911 | 76 | 232 | 3.0 | 5.0 | 0.00 | 0.00 | 0.00 | 19 | 1101.2 |
| 20260503222410 | 76 | 233 | 3.0 | 5.0 | 0.00 | 0.00 | 0.00 | 20 | 1101.1 |
| 20260503221907 | 76 | 55 | 3.0 | 5.0 | 0.00 | 0.00 | 0.00 | 19 | 1101.1 |
| 20260503221406 | 77 | 316 | 2.0 | 2.0 | 0.00 | 0.00 | 0.00 | 19 | 1101.3 |
| 20260503220902 | 76 | 200 | 2.0 | 3.0 | 0.00 | 0.00 | 0.00 | 19 | 1101.3 |
| 20260503220359 | 77 | 256 | 2.0 | 3.0 | 0.00 | 0.00 | 0.00 | 20 | 1101.5 |
| 20260503215856 | 76 | 282 | 2.0 | 3.0 | 0.00 | 0.00 | 0.00 | 20 | 1101.6 |
| 20260503215353 | 77 | 257 | 1.0 | 6.0 | 0.00 | 0.00 | 0.00 | 22 | 1101.6 |
| 20260503214850 | 76 | 175 | 3.0 | 5.0 | 0.00 | 0.00 | 0.00 | 21 | 1101.4 |